This is the latest recevied weather packets stored in our database for station/object MB7UUE. If no packets are shown the sender has not sent any weather packets the latest 10 day(s).
| Time | Temp. | Humidity | Pressure | Rain* | Wind** | Luminosity | Snow |
|---|---|---|---|---|---|---|---|
| 1788045959 | 19.44° C | 81% | 1004.4 hPa | 0 mm | - | - | - |
| 1788044820 | 19.44° C | 80% | 1004.2 hPa | 0 mm | - | - | - |
| 1788043681 | 19.44° C | 80% | 1004 hPa | 0 mm | - | - | - |
| 1788042539 | 19.44° C | 81% | 1004 hPa | 0 mm | - | - | - |
| 1788041399 | 19.44° C | 81% | 1003.8 hPa | 0 mm | - | - | - |
| 1788040259 | 19.44° C | 82% | 1003.6 hPa | 0 mm | - | - | - |
| 1788039118 | 18.89° C | 82% | 1003.5 hPa | 0 mm | - | - | - |
| 1788039118 | 18.89° C | 82% | 1003.5 hPa | 0 mm | - | - | - |
| 1788037979 | 19.44° C | 82% | 1003.4 hPa | 0 mm | - | - | - |
| 1788036838 | 19.44° C | 82% | 1003.2 hPa | 0 mm | - | - | - |
| 1788035699 | 19.44° C | 82% | 1003.1 hPa | 0 mm | - | - | - |
| 1788034559 | 19.44° C | 82% | 1002.9 hPa | 0 mm | - | - | - |
| 1788033418 | 20° C | 81% | 1002.5 hPa | 0 mm | - | - | - |
| 1788032279 | 20° C | 81% | 1002.4 hPa | 0 mm | - | - | - |
| 1788031140 | 20° C | 81% | 1001.8 hPa | 0 mm | - | - | - |
| 1788029998 | 20° C | 81% | 1001.4 hPa | 0 mm | - | - | - |
| 1788028858 | 19.44° C | 82% | 1000.9 hPa | 0 mm | - | - | - |
| 1788027719 | 19.44° C | 82% | 1000.5 hPa | 0 mm | - | - | - |
| 1788026580 | 19.44° C | 83% | 1000.3 hPa | 0 mm | - | - | - |
| 1788025439 | 19.44° C | 85% | 1000.1 hPa | 0 mm | - | - | - |
| 1788024299 | 19.44° C | 84% | 1000 hPa | 0 mm | - | - | - |
| 1788023159 | 20° C | 82% | 1000 hPa | 0 mm | - | - | - |
| 1788022020 | 20.56° C | 79% | 999.9 hPa | 0 mm | - | - | - |
| 1788020880 | 20° C | 79% | 999.9 hPa | 0 mm | - | - | - |
| 1788020880 | 20° C | 79% | 1000 hPa | 0 mm | - | - | - |
* Rain latest hour (hover to see other rain measurements)
** Current wind speed in m/s (hover to see current wind gust speed)